Luverne, MN

5:23 PM CDT on May 29, 2017 (GMT -0500)
Luverne

Weather History for KLYV - January, 2012

Change the Weather History Date:

Tuesday, January 17, 2012

  Actual Average (KPQN) Record (KPQN)
Temperature  
Mean Temperature 7 °F -  
Max Temperature 14 °F 21 °F 37 °F (2015)
Min Temperature 0 °F 6 °F -23 °F (1997)
Degree Days  
Heating Degree Days 58    
Moisture  
Dew Point 2 °F    
Average Humidity 72    
Maximum Humidity 85    
Minimum Humidity 62    
Precipitation  
Precipitation 0.00 in - - ()
Sea Level Pressure  
Sea Level Pressure 30.19 in    
Wind  
Wind Speed 14 mph (NNW)    
Max Wind Speed 23 mph    
Max Gust Speed 30 mph    
Visibility 8 miles    
Events Snow    
Averages and records for this station are not official NWS values.
T = Trace of Precipitation, MM = Missing Value Source: NWS Daily Summary

Daily Weather History Graph

Daily Weather History Graph

Search for Another Location

Airport or City:

Trip Planner

Search our weather history database for the weather conditions in past years. The results will help you decide how hot, cold, wet, or windy it might be!

Date:

Astronomy

Jan. 17, 2012 Rise Set
Actual Time 7:54 AM CST 5:15 PM CST
Civil Twilight 7:22 AM CST 5:47 PM CST
Nautical Twilight 6:47 AM CST 6:22 PM CST
Astronomical Twilight 6:13 AM CST 6:57 PM CST
Moon 2:14 AM CST (1/17) 12:10 PM CST (1/17)
Length of Visible Light 10h 24m
Length of Day
9h 21m
Waning Crescent, 35% of the Moon is Illuminated
Jan 17
Waning Crescent
Jan 23
New
Jan 30
First Quarter
Feb 7
Full
Feb 14
Last Quarter

Hourly Weather History & Observations

Time (CST) Temp. Windchill Dew Point Humidity Pressure Visibility Wind Dir Wind Speed Gust Speed Precip Events Conditions
12:05 AM 14.0 °F -1.4 °F 6.8 °F 73% 29.98 in 5.0 mi North 15.0 mph 29.9 mph N/A   Mostly Cloudy
12:45 AM 12.2 °F -5.3 °F 8.6 °F 85% 30.00 in 1.5 mi North 18.4 mph 26.5 mph N/A   Mostly Cloudy
1:05 AM 12.2 °F -1.8 °F 6.8 °F 79% 30.01 in 2.0 mi North 11.5 mph 26.5 mph N/A   Overcast
1:25 AM 12.2 °F -5.3 °F 6.8 °F 79% 30.02 in 2.0 mi North 18.4 mph 23.0 mph N/A   Overcast
1:45 AM 12.2 °F -6.7 °F 6.8 °F 79% 30.01 in 2.0 mi North 21.9 mph 29.9 mph N/A   Overcast
2:16 AM 12.2 °F -7.1 °F 6.8 °F 79% 30.01 in 5.0 mi North 23.0 mph 27.6 mph N/A Snow Light Snow
2:36 AM 12.2 °F -5.8 °F 6.8 °F 79% 30.03 in 2.5 mi North 19.6 mph 27.6 mph N/A Snow Light Snow
2:56 AM 12.2 °F -5.3 °F 5.0 °F 73% 30.05 in 4.0 mi North 18.4 mph 25.3 mph N/A Snow Light Snow
3:16 AM 12.2 °F -6.3 °F 5.0 °F 73% 30.06 in 3.0 mi North 20.7 mph 25.3 mph N/A Snow Light Snow
3:36 AM 10.4 °F -6.6 °F 5.0 °F 79% 30.08 in 3.0 mi NNW 16.1 mph 28.8 mph N/A Snow Light Snow
3:56 AM 10.4 °F -6.6 °F 5.0 °F 79% 30.08 in 3.0 mi North 16.1 mph 25.3 mph N/A Snow Light Snow
4:16 AM 10.4 °F -5.4 °F 5.0 °F 79% 30.09 in 2.5 mi North 13.8 mph 21.9 mph N/A Snow Light Snow
4:36 AM 10.4 °F -7.2 °F 3.2 °F 73% 30.09 in 3.0 mi North 17.3 mph 25.3 mph N/A Snow Light Snow
4:56 AM 10.4 °F -6.6 °F 3.2 °F 73% 30.10 in 2.5 mi North 16.1 mph 25.3 mph N/A Snow Light Snow
5:36 AM 8.6 °F -9.5 °F 1.4 °F 73% 30.11 in 7.0 mi North 17.3 mph 25.3 mph N/A   Overcast
5:56 AM 8.6 °F -9.5 °F 3.2 °F 79% 30.13 in 2.0 mi North 17.3 mph 20.7 mph N/A Snow Light Snow
6:16 AM 8.6 °F -7.0 °F 3.2 °F 79% 30.14 in 2.0 mi NNW 12.7 mph 26.5 mph N/A Snow Light Snow
6:36 AM 8.6 °F -8.3 °F 1.4 °F 73% 30.15 in 5.0 mi North 15.0 mph 19.6 mph N/A   Haze
6:56 AM 8.6 °F -8.3 °F -0.4 °F 67% 30.17 in 7.0 mi NNW 15.0 mph 21.9 mph N/A   Overcast
7:16 AM 8.6 °F -8.9 °F -0.4 °F 67% 30.17 in 4.0 mi North 16.1 mph 25.3 mph N/A Snow Light Snow
7:36 AM 8.6 °F -8.9 °F -0.4 °F 67% 30.19 in 10.0 mi NNW 16.1 mph 21.9 mph N/A   Overcast
7:55 AM 8.6 °F -8.9 °F -0.4 °F 67% 30.20 in 10.0 mi NNW 16.1 mph 19.6 mph N/A   Overcast
8:16 AM 8.6 °F -8.3 °F -0.4 °F 67% 30.21 in 10.0 mi NNW 15.0 mph 19.6 mph N/A   Overcast
8:35 AM 8.6 °F -8.3 °F -0.4 °F 67% 30.22 in 10.0 mi NNW 15.0 mph 21.9 mph N/A   Overcast
8:56 AM 8.6 °F -8.9 °F -0.4 °F 67% 30.23 in 10.0 mi NNW 16.1 mph 21.9 mph N/A   Overcast
9:36 AM 8.6 °F -8.9 °F -0.4 °F 67% 30.26 in 10.0 mi NNW 16.1 mph 20.7 mph N/A   Clear
9:56 AM 8.6 °F -7.0 °F -0.4 °F 67% 30.26 in 10.0 mi NNW 12.7 mph 24.2 mph N/A   Clear
10:16 AM 8.6 °F -8.9 °F -0.4 °F 67% 30.27 in 10.0 mi NNW 16.1 mph 23.0 mph N/A   Clear
10:36 AM 8.6 °F -10.0 °F -0.4 °F 67% 30.28 in 10.0 mi NNW 18.4 mph 23.0 mph N/A   Clear
10:56 AM 8.6 °F -8.3 °F -0.4 °F 67% 30.29 in 10.0 mi NNW 15.0 mph - N/A   Clear
11:16 AM 8.6 °F -8.9 °F -0.4 °F 67% 30.30 in 10.0 mi NNW 16.1 mph - N/A   Clear
11:36 AM 8.6 °F -8.9 °F 1.4 °F 73% 30.29 in 7.0 mi NNW 16.1 mph - N/A   Scattered Clouds
11:56 AM 10.4 °F -6.6 °F 1.4 °F 67% 30.28 in 10.0 mi NNW 16.1 mph - N/A   Scattered Clouds
12:16 PM 10.4 °F -6.0 °F 1.4 °F 67% 30.28 in 10.0 mi NNW 15.0 mph - N/A   Clear
12:36 PM 10.4 °F -4.8 °F 1.4 °F 67% 30.27 in 7.0 mi NNW 12.7 mph 17.3 mph N/A   Scattered Clouds
12:56 PM 10.4 °F -3.3 °F 3.2 °F 73% 30.26 in 10.0 mi NW 10.4 mph - N/A   Scattered Clouds
1:16 PM 12.2 °F -0.2 °F 3.2 °F 67% 30.26 in 10.0 mi NW 9.2 mph 19.6 mph N/A   Scattered Clouds
1:36 PM 12.2 °F -1.0 °F 3.2 °F 67% 30.25 in 10.0 mi NNW 10.4 mph - N/A   Clear
1:56 PM 12.2 °F -0.2 °F 3.2 °F 67% 30.25 in 7.0 mi NW 9.2 mph - N/A   Clear
2:36 PM 14.0 °F 2.0 °F 3.2 °F 62% 30.24 in 10.0 mi NW 9.2 mph - N/A   Scattered Clouds
2:56 PM 14.0 °F 1.2 °F 5.0 °F 67% 30.25 in 10.0 mi NW 10.4 mph - N/A   Clear
3:16 PM 14.0 °F 2.0 °F 3.2 °F 62% 30.25 in 10.0 mi NW 9.2 mph - N/A   Clear
3:36 PM 14.0 °F 2.0 °F 5.0 °F 67% 30.26 in 10.0 mi WNW 9.2 mph - N/A   Clear
3:56 PM 14.0 °F -0.2 °F 5.0 °F 67% 30.26 in 10.0 mi WNW 12.7 mph - N/A   Clear
4:16 PM 12.2 °F -0.2 °F 3.2 °F 67% 30.27 in 10.0 mi WNW 9.2 mph - N/A   Clear
4:36 PM 12.2 °F -1.0 °F 3.2 °F 67% 30.27 in 10.0 mi WNW 10.4 mph - N/A   Clear
4:56 PM 12.2 °F 0.7 °F 3.2 °F 67% 30.28 in 10.0 mi WNW 8.1 mph - N/A   Clear
5:16 PM 10.4 °F -0.4 °F 3.2 °F 73% 30.27 in 10.0 mi West 6.9 mph - N/A   Clear
5:36 PM 8.6 °F -1.3 °F 1.4 °F 73% 30.27 in 10.0 mi West 5.8 mph - N/A   Clear
5:56 PM 6.8 °F -4.8 °F -0.4 °F 72% 30.26 in 10.0 mi West 6.9 mph - N/A   Clear
6:16 PM 5.0 °F -4.1 °F -0.4 °F 78% 30.27 in 10.0 mi West 4.6 mph - N/A   Clear
6:36 PM 1.4 °F -9.9 °F -4.0 °F 78% 30.27 in 10.0 mi West 5.8 mph - N/A   Clear
6:56 PM 1.4 °F - -4.0 °F 78% 30.27 in 10.0 mi Calm Calm - N/A   Clear
7:16 PM 1.4 °F - -4.0 °F 78% 30.26 in 10.0 mi Calm Calm - N/A   Clear
7:36 PM 1.4 °F - -4.0 °F 78% 30.26 in 10.0 mi Calm Calm - N/A   Clear
7:56 PM 1.4 °F - -4.0 °F 78% 30.26 in 10.0 mi Calm Calm - N/A   Clear
8:36 PM -0.4 °F -10.4 °F -5.8 °F 78% 30.25 in 10.0 mi SSE 4.6 mph - N/A   Clear
8:56 PM -0.4 °F - -5.8 °F 78% 30.24 in 10.0 mi Calm Calm - N/A   Clear
9:16 PM 1.4 °F - -4.0 °F 78% 30.24 in 10.0 mi Calm Calm - N/A   Clear
9:36 PM -4.0 °F - -7.6 °F 85% 30.24 in 10.0 mi Calm Calm - N/A   Clear
9:55 PM -4.0 °F -12.4 °F -7.6 °F 85% 30.23 in 10.0 mi SSW 3.5 mph - N/A   Clear
10:16 PM -4.0 °F -12.4 °F -7.6 °F 85% 30.23 in 10.0 mi SSE 3.5 mph - N/A   Clear
10:36 PM -2.2 °F -12.5 °F -7.6 °F 78% 30.22 in 10.0 mi South 4.6 mph - N/A   Clear
10:56 PM -2.2 °F -12.5 °F -5.8 °F 85% 30.21 in 10.0 mi South 4.6 mph - N/A   Clear
11:16 PM -4.0 °F - -7.6 °F 85% 30.19 in 10.0 mi Calm Calm - N/A   Clear
11:36 PM -5.8 °F -14.5 °F -9.4 °F 84% 30.18 in 10.0 mi South 3.5 mph - N/A   Clear
11:56 PM -4.0 °F -12.4 °F -7.6 °F 85% 30.17 in 10.0 mi SSE 3.5 mph - N/A   Clear